Lancaster, PA

10:08 AM EDT on September 23, 2019 (GMT -0400)
Lancaster

Weather History for KLNS - August, 2019

Change the Weather History Date:

Thursday, August 22, 2019

  Actual Average Record
Temperature  
Mean Temperature 81 °F -  
Max Temperature 91 °F 80 °F 94 °F (1983)
Min Temperature 72 °F 56 °F 33 °F (1996)
Cooling Degree Days 16    
Growing Degree Days 31 (Base 50)    
Moisture  
Dew Point 68 °F    
Average Humidity 69    
Maximum Humidity 87    
Minimum Humidity 46    
Precipitation  
Precipitation 0.17 in - - ()
Sea Level Pressure  
Sea Level Pressure 29.90 in    
Wind  
Wind Speed 6 mph (West)    
Max Wind Speed 10 mph    
Max Gust Speed 46 mph    
Visibility 9 miles    
Events Rain , Thunderstorm    
Averages and records for this station are not official NWS values.
T = Trace of Precipitation, MM = Missing Value Source: NWS Daily Summary

Daily Weather History Graph

Daily Weather History Graph

Search for Another Location

Airport or City:

Astronomy

Aug. 22, 2019 Rise Set
Actual Time 6:23 AM EDT 7:52 PM EDT
Civil Twilight 5:54 AM EDT 8:20 PM EDT
Nautical Twilight 5:20 AM EDT 8:55 PM EDT
Astronomical Twilight 4:43 AM EDT 9:31 PM EDT
Moon 11:40 PM EDT (8/22) 12:56 PM EDT (8/22)
Length of Visible Light 14h 26m
Length of Day
13h 29m
Waning Gibbous, 60% of the Moon is Illuminated
Aug 22
Waning Gibbous
Aug 23
Last Quarter
Aug 30
New
Sep 5
First Quarter
Sep 14
Full

Hourly Weather History & Observations

Time (EDT) Temp. Heat Index Dew Point Humidity Pressure Visibility Wind Dir Wind Speed Gust Speed Precip Events Conditions
12:53 AM 73.0 °F - 69.1 °F 87% 29.90 in 9.0 mi WNW 4.6 mph - N/A   Clear
1:53 AM 73.0 °F - 69.1 °F 87% 29.89 in 9.0 mi ESE 3.5 mph - N/A   Clear
2:53 AM 73.9 °F - 70.0 °F 87% 29.88 in 8.0 mi Calm Calm - N/A   Partly Cloudy
3:53 AM 73.0 °F - 69.1 °F 87% 29.87 in 8.0 mi WNW 4.6 mph - N/A   Clear
4:53 AM 72.0 °F - 68.0 °F 87% 29.88 in 7.0 mi West 4.6 mph - N/A   Clear
5:53 AM 72.0 °F - 66.9 °F 84% 29.89 in 8.0 mi WNW 6.9 mph - N/A   Clear
6:53 AM 72.0 °F - 66.9 °F 84% 29.92 in 9.0 mi WNW 8.1 mph - N/A   Clear
7:53 AM 73.0 °F - 68.0 °F 84% 29.93 in 10.0 mi WNW 6.9 mph - N/A   Partly Cloudy
8:53 AM 77.0 °F - 68.0 °F 74% 29.93 in 10.0 mi West 5.8 mph - N/A   Clear
9:53 AM 81.0 °F 84.1 °F 69.1 °F 67% 29.93 in 10.0 mi West 5.8 mph - N/A   Clear
10:53 AM 82.9 °F 87.0 °F 70.0 °F 65% 29.94 in 10.0 mi West 9.2 mph - N/A   Clear
11:53 AM 86.0 °F 90.7 °F 70.0 °F 59% 29.94 in 10.0 mi West 8.1 mph - N/A   Partly Cloudy
12:53 PM 87.1 °F 92.0 °F 70.0 °F 57% 29.92 in 10.0 mi West 10.4 mph - N/A   Partly Cloudy
1:53 PM 89.1 °F 93.7 °F 69.1 °F 52% 29.91 in 10.0 mi West 9.2 mph - N/A   Partly Cloudy
2:53 PM 90.0 °F 93.6 °F 68.0 °F 48% 29.90 in 10.0 mi WSW 9.2 mph - N/A   Scattered Clouds
3:53 PM 89.1 °F 91.3 °F 66.0 °F 46% 29.86 in 10.0 mi West 4.6 mph - N/A   Partly Cloudy
4:53 PM 89.1 °F 91.3 °F 66.0 °F 46% 29.85 in 10.0 mi WSW 9.2 mph - N/A   Clear
5:53 PM 90.0 °F 93.6 °F 68.0 °F 48% 29.86 in 10.0 mi SW 6.9 mph - N/A   Scattered Clouds
6:53 PM 88.0 °F 90.7 °F 66.9 °F 49% 29.86 in 10.0 mi SSW 8.1 mph - N/A   Scattered Clouds
7:08 PM 88.0 °F 91.4 °F 68.0 °F 51% 29.87 in 10.0 mi SW 8.1 mph - N/A Thunderstorm Clear
7:32 PM 81.0 °F 82.7 °F 64.9 °F 58% 29.88 in 0.8 mi West 8.1 mph 46.0 mph 0.17 in Rain Rain
7:37 PM 79.0 °F - 69.1 °F 72% 29.88 in 3.0 mi NW 5.8 mph 17.3 mph 0.17 in Rain Light Rain
7:53 PM 78.1 °F - 70.0 °F 76% 29.88 in 10.0 mi NW 6.9 mph - 0.17 in   Partly Cloudy
8:53 PM 77.0 °F - 68.0 °F 74% 29.91 in 10.0 mi North 6.9 mph - N/A   Scattered Clouds
9:53 PM 77.0 °F - 69.1 °F 76% 29.94 in 10.0 mi South 5.8 mph - N/A   Overcast
10:53 PM 75.0 °F - 70.0 °F 84% 29.94 in 10.0 mi East 3.5 mph - N/A   Scattered Clouds
11:53 PM 75.9 °F - 70.0 °F 82% 29.94 in 10.0 mi SSW 3.5 mph - N/A   Mostly Cloudy